Hourly Weather Bolshie Korchicy

Today, 20 June, Sunday

Time Temperature Precipitation Wind Pressure Humidity
00:00 +19°C° 0 mm 2 mps 750 mmHg 89%
01:00 +20°C° 0 mm 1 mps 750 mmHg 90%
02:00 +19°C° 0 mm 1 mps 750 mmHg 90%
03:00 +18°C° 0 mm 2 mps 750 mmHg 91%
04:00 +18°C° 0 mm 2 mps 750 mmHg 91%
05:00 +18°C° 0 mm 2 mps 750 mmHg 91%
06:00 +20°C° 0 mm 2 mps 750 mmHg 87%
07:00 +22°C° 0 mm 3 mps 750 mmHg 82%
08:00 +24°C° 0 mm 3 mps 750 mmHg 77%
09:00 +26°C° 0 mm 4 mps 750 mmHg 73%
10:00 +27°C° 0 mm 4 mps 750 mmHg 69%
11:00 +28°C° 0 mm 5 mps 750 mmHg 65%
12:00 +29°C° 0.1 mm 5 mps 749 mmHg 62%
13:00 +29°C° 0.1 mm 5 mps 749 mmHg 59%
14:00 +30°C° 0.1 mm 4 mps 749 mmHg 56%
15:00 +30°C° 0.1 mm 4 mps 748 mmHg 58%
16:00 +30°C° 0.1 mm 3 mps 748 mmHg 59%
17:00 +30°C° 0.1 mm 3 mps 748 mmHg 61%
18:00 +28°C° 0.1 mm 3 mps 748 mmHg 68%
19:00 +27°C° 0.1 mm 3 mps 748 mmHg 74%
20:00 +25°C° 0.1 mm 3 mps 747 mmHg 81%
21:00 +24°C° 0.1 mm 3 mps 747 mmHg 83%
22:00 +22°C° 0.1 mm 3 mps 747 mmHg 86%
23:00 +21°C° 0.1 mm 3 mps 747 mmHg 88%

Tomorrow, 21 June, Monday

Time Temperature Precipitation Wind Pressure Humidity
00:00 +20°C° 0 mm 3 mps 747 mmHg 89%
01:00 +20°C° 0 mm 2 mps 747 mmHg 90%
02:00 +19°C° 0 mm 2 mps 747 mmHg 91%
03:00 +19°C° 0 mm 2 mps 747 mmHg 92%
04:00 +18°C° 0 mm 3 mps 747 mmHg 93%
05:00 +18°C° 0 mm 3 mps 747 mmHg 94%
06:00 +20°C° 0 mm 3 mps 747 mmHg 89%
07:00 +21°C° 0 mm 4 mps 747 mmHg 84%
08:00 +23°C° 0 mm 4 mps 747 mmHg 80%
09:00 +25°C° 0 mm 4 mps 747 mmHg 74%
10:00 +26°C° 0 mm 5 mps 747 mmHg 69%
11:00 +27°C° 0 mm 5 mps 747 mmHg 64%
12:00 +27°C° 0.2 mm 5 mps 746 mmHg 63%
13:00 +28°C° 0.2 mm 5 mps 746 mmHg 62%
14:00 +28°C° 0.2 mm 5 mps 746 mmHg 61%
15:00 +28°C° 0.1 mm 4 mps 746 mmHg 63%
16:00 +27°C° 0.1 mm 4 mps 746 mmHg 66%
17:00 +27°C° 0.1 mm 3 mps 746 mmHg 69%
18:00 +26°C° 0.2 mm 3 mps 745 mmHg 74%
19:00 +25°C° 0.2 mm 3 mps 745 mmHg 78%
20:00 +24°C° 0.2 mm 3 mps 745 mmHg 82%
21:00 +22°C° 0 mm 3 mps 745 mmHg 85%
22:00 +21°C° 0 mm 2 mps 745 mmHg 87%
23:00 +20°C° 0 mm 2 mps 745 mmHg 90%

Day after tomorrow, 22 June, Tuesday

Time Temperature Precipitation Wind Pressure Humidity
00:00 +20°C° 0 mm 2 mps 745 mmHg 91%
01:00 +20°C° 0 mm 2 mps 745 mmHg 92%
02:00 +20°C° 0 mm 2 mps 745 mmHg 93%
03:00 +19°C° 0 mm 2 mps 745 mmHg 93%
04:00 +19°C° 0 mm 2 mps 745 mmHg 94%
05:00 +19°C° 0 mm 2 mps 745 mmHg 94%
06:00 +21°C° 0 mm 3 mps 746 mmHg 88%
07:00 +24°C° 0 mm 3 mps 746 mmHg 82%
08:00 +25°C° 0 mm 4 mps 746 mmHg 76%
09:00 +26°C° 0 mm 4 mps 746 mmHg 70%
10:00 +28°C° 0 mm 4 mps 746 mmHg 65%
11:00 +29°C° 0 mm 5 mps 747 mmHg 59%
12:00 +30°C° 0 mm 4 mps 746 mmHg 56%
13:00 +30°C° 0 mm 4 mps 746 mmHg 54%
14:00 +32°C° 0 mm 4 mps 746 mmHg 51%
15:00 +32°C° 0 mm 4 mps 746 mmHg 53%
16:00 +31°C° 0 mm 3 mps 746 mmHg 54%
17:00 +31°C° 0 mm 3 mps 746 mmHg 56%
18:00 +29°C° 0 mm 3 mps 746 mmHg 62%
19:00 +28°C° 0 mm 2 mps 746 mmHg 67%
20:00 +27°C° 0 mm 2 mps 746 mmHg 73%
21:00 +26°C° 0 mm 1 mps 746 mmHg 75%
22:00 +25°C° 0 mm 1 mps 747 mmHg 77%
23:00 +24°C° 0 mm 1 mps 747 mmHg 79%

23 June, Wednesday

Time Temperature Precipitation Wind Pressure Humidity
00:00 +23°C° 0.1 mm 1 mps 747 mmHg 81%
01:00 +23°C° 0.1 mm 1 mps 747 mmHg 83%
02:00 +21°C° 0.1 mm 2 mps 747 mmHg 85%
03:00 +22°C° 0 mm 1 mps 747 mmHg 86%
04:00 +22°C° 0 mm 1 mps 747 mmHg 87%
05:00 +22°C° 0 mm 1 mps 747 mmHg 88%
06:00 +24°C° 0.1 mm 2 mps 747 mmHg 84%
07:00 +25°C° 0.1 mm 2 mps 748 mmHg 80%
08:00 +27°C° 0.1 mm 2 mps 748 mmHg 76%
09:00 +28°C° 0 mm 3 mps 748 mmHg 71%
10:00 +29°C° 0 mm 3 mps 748 mmHg 66%
11:00 +31°C° 0 mm 3 mps 748 mmHg 62%
12:00 +31°C° 0 mm 3 mps 748 mmHg 58%
13:00 +33°C° 0 mm 3 mps 748 mmHg 55%
14:00 +34°C° 0 mm 3 mps 748 mmHg 51%
15:00 +33°C° 0 mm 3 mps 748 mmHg 52%
16:00 +33°C° 0 mm 3 mps 748 mmHg 54%
17:00 +33°C° 0 mm 3 mps 748 mmHg 55%
18:00 +31°C° 0 mm 2 mps 748 mmHg 60%
19:00 +29°C° 0 mm 2 mps 748 mmHg 66%
20:00 +28°C° 0 mm 2 mps 748 mmHg 71%
21:00 +27°C° 0.1 mm 2 mps 748 mmHg 73%
22:00 +26°C° 0.1 mm 2 mps 748 mmHg 74%
23:00 +25°C° 0.1 mm 2 mps 748 mmHg 76%

24 June, Thursday

Time Temperature Precipitation Wind Pressure Humidity
00:00 +24°C° 0.2 mm 1 mps 748 mmHg 79%
01:00 +24°C° 0.2 mm 1 mps 748 mmHg 82%
02:00 +23°C° 0.2 mm 1 mps 748 mmHg 85%
03:00 +23°C° 0.1 mm 1 mps 749 mmHg 87%
04:00 +23°C° 0.1 mm 1 mps 749 mmHg 89%
05:00 +23°C° 0.1 mm 1 mps 749 mmHg 91%
06:00 +24°C° 0 mm 1 mps 749 mmHg 87%
07:00 +25°C° 0 mm 1 mps 749 mmHg 83%
08:00 +26°C° 0 mm 1 mps 749 mmHg 78%
09:00 +28°C° 0.1 mm 1 mps 749 mmHg 74%
10:00 +29°C° 0.1 mm 1 mps 749 mmHg 69%
11:00 +30°C° 0.1 mm 1 mps 749 mmHg 64%
12:00 +31°C° 0.6 mm 1 mps 749 mmHg 62%
13:00 +31°C° 0.6 mm 1 mps 749 mmHg 59%
14:00 +32°C° 0.6 mm 1 mps 749 mmHg 57%
15:00 +32°C° 0.2 mm 1 mps 748 mmHg 58%
16:00 +32°C° 0.2 mm 1 mps 748 mmHg 59%
17:00 +31°C° 0.2 mm 1 mps 747 mmHg 59%
18:00 +29°C° 0.8 mm 1 mps 748 mmHg 67%
19:00 +27°C° 0.8 mm 2 mps 748 mmHg 75%
20:00 +25°C° 0.8 mm 2 mps 748 mmHg 83%
21:00 +24°C° 1.1 mm 2 mps 748 mmHg 86%
22:00 +23°C° 1.1 mm 1 mps 748 mmHg 89%
23:00 +22°C° 1.1 mm 1 mps 748 mmHg 92%

25 June, Friday

Time Temperature Precipitation Wind Pressure Humidity
00:00 +21°C° 2.4 mm 2 mps 748 mmHg 93%
01:00 +21°C° 2.4 mm 2 mps 748 mmHg 94%
02:00 +21°C° 2.4 mm 3 mps 748 mmHg 95%
03:00 +21°C° 0.1 mm 3 mps 748 mmHg 94%
04:00 +21°C° 0.1 mm 2 mps 747 mmHg 93%
05:00 +21°C° 0.1 mm 2 mps 747 mmHg 92%
06:00 +23°C° 0 mm 2 mps 748 mmHg 89%
07:00 +24°C° 0 mm 1 mps 748 mmHg 86%
08:00 +25°C° 0 mm 1 mps 748 mmHg 83%
09:00 +26°C° 0 mm 1 mps 748 mmHg 77%
10:00 +27°C° 0 mm 1 mps 748 mmHg 71%
11:00 +28°C° 0 mm 2 mps 748 mmHg 65%
12:00 +29°C° 0.1 mm 2 mps 748 mmHg 64%
13:00 +29°C° 0.1 mm 2 mps 748 mmHg 64%
14:00 +29°C° 0.1 mm 2 mps 748 mmHg 63%
15:00 +29°C° 0.6 mm 2 mps 748 mmHg 65%
16:00 +28°C° 0.6 mm 2 mps 747 mmHg 67%
17:00 +28°C° 0.6 mm 2 mps 747 mmHg 69%
18:00 +27°C° 0.5 mm 2 mps 747 mmHg 75%
19:00 +26°C° 0.5 mm 2 mps 747 mmHg 81%
20:00 +24°C° 0.5 mm 3 mps 747 mmHg 86%
21:00 +22°C° 0.6 mm 3 mps 747 mmHg 89%
22:00 +21°C° 0.6 mm 3 mps 747 mmHg 92%
23:00 +20°C° 0.6 mm 3 mps 747 mmHg 95%
Show more